TimeEDT,TemperatureF,Dew PointF,Humidity,Sea Level PressureIn,VisibilityMPH,Wind Direction,Wind SpeedMPH,Gust SpeedMPH,PrecipitationIn,Events,Conditions,WindDirDegrees,DateUTC
12:53 AM,48.0,33.1,56,30.14,9.0,Calm,Calm,-,N/A,,Clear,0,2013-03-11 04:53:00
1:53 AM,48.9,34.0,56,30.13,10.0,South,5.8,-,N/A,,Clear,190,2013-03-11 05:53:00
2:53 AM,48.9,34.0,56,30.12,10.0,Calm,Calm,-,N/A,,Clear,0,2013-03-11 06:53:00
3:53 AM,46.9,34.0,61,30.10,10.0,Calm,Calm,-,N/A,,Clear,0,2013-03-11 07:53:00
4:53 AM,46.0,35.1,66,30.08,10.0,Calm,Calm,-,N/A,,Clear,0,2013-03-11 08:53:00
5:13 AM,44.6,35.6,71,30.12,10.0,Calm,Calm,-,N/A,,Mostly Cloudy,0,2013-03-11 09:13:00
5:53 AM,46.9,37.0,68,30.07,10.0,Calm,Calm,-,N/A,,Overcast,0,2013-03-11 09:53:00
6:38 AM,46.4,35.6,66,30.10,10.0,Calm,Calm,-,N/A,,Scattered Clouds,0,2013-03-11 10:38:00
6:53 AM,44.1,36.0,73,30.07,10.0,Calm,Calm,-,N/A,,Mostly Cloudy,0,2013-03-11 10:53:00
7:34 AM,46.4,35.6,66,30.10,10.0,Calm,Calm,-,N/A,,Overcast,0,2013-03-11 11:34:00
7:53 AM,46.0,37.0,71,30.07,10.0,Calm,Calm,-,N/A,,Overcast,0,2013-03-11 11:53:00
8:53 AM,48.0,32.0,54,30.08,10.0,South,3.5,-,N/A,,Mostly Cloudy,190,2013-03-11 12:53:00
9:53 AM,48.0,27.0,44,30.07,10.0,Calm,Calm,-,N/A,,Mostly Cloudy,0,2013-03-11 13:53:00
10:29 AM,48.2,26.6,43,30.10,10.0,Calm,Calm,-,N/A,,Overcast,0,2013-03-11 14:29:00
10:53 AM,48.9,27.0,43,30.06,10.0,Calm,Calm,-,N/A,,Overcast,0,2013-03-11 14:53:00
11:27 AM,50.0,30.2,47,30.08,10.0,Calm,Calm,-,N/A,,Overcast,0,2013-03-11 15:27:00
11:53 AM,51.1,34.0,52,30.04,10.0,Calm,Calm,-,N/A,,Overcast,0,2013-03-11 15:53:00
12:53 PM,53.1,39.0,59,30.02,10.0,Calm,Calm,-,N/A,,Overcast,0,2013-03-11 16:53:00
1:53 PM,57.0,42.1,57,29.97,10.0,Calm,Calm,-,N/A,,Overcast,0,2013-03-11 17:53:00
2:53 PM,62.1,46.0,56,29.90,10.0,Calm,Calm,-,N/A,,Overcast,0,2013-03-11 18:53:00
3:53 PM,64.9,45.0,48,29.88,10.0,South,13.8,21.9,N/A,,Overcast,190,2013-03-11 19:53:00
4:53 PM,64.9,44.1,47,29.84,10.0,South,11.5,25.3,N/A,,Mostly Cloudy,190,2013-03-11 20:53:00
5:53 PM,64.0,45.0,50,29.84,10.0,South,12.7,19.6,N/A,,Overcast,180,2013-03-11 21:53:00
6:53 PM,63.0,46.0,54,29.85,10.0,Variable,5.8,-,N/A,,Overcast,0,2013-03-11 22:53:00
7:53 PM,61.0,48.0,62,29.83,10.0,Calm,Calm,-,0.00,Rain,Light Rain,0,2013-03-11 23:53:00
8:53 PM,61.0,48.0,62,29.83,10.0,South,8.1,-,0.00,Rain,Light Rain,190,2013-03-12 00:53:00
9:53 PM,51.1,48.9,92,29.85,3.0,WNW,6.9,-,0.14,Rain,Heavy Rain,300,2013-03-12 01:53:00
9:55 PM,51.8,50.0,94,29.88,2.5,WNW,5.8,-,0.01,Rain,Heavy Rain,300,2013-03-12 01:55:00
10:04 PM,51.8,50.0,94,29.88,3.0,Calm,Calm,-,0.04,Rain,Rain,0,2013-03-12 02:04:00
10:11 PM,51.8,48.2,88,29.88,3.0,WNW,6.9,-,0.07,Rain,Rain,300,2013-03-12 02:11:00
10:26 PM,51.8,50.0,94,29.88,2.5,Calm,Calm,-,0.13,Rain,Heavy Rain,0,2013-03-12 02:26:00
10:40 PM,51.8,50.0,94,29.87,3.0,Calm,Calm,-,0.16,Rain,Rain,0,2013-03-12 02:40:00
10:53 PM,51.1,50.0,96,29.84,4.0,Calm,Calm,-,0.17,Rain,Light Rain,0,2013-03-12 02:53:00
11:23 PM,51.8,48.2,88,29.88,2.5,West,11.5,16.1,0.03,Rain,Light Rain,280,2013-03-12 03:23:00
11:36 PM,51.8,50.0,94,29.87,1.8,NW,3.5,-,0.13,Rain,Heavy Rain,310,2013-03-12 03:36:00
11:43 PM,51.8,50.0,94,29.86,2.5,Calm,Calm,-,0.16,Rain,Heavy Rain,0,2013-03-12 03:43:00
11:50 PM,51.8,50.0,94,29.87,2.5,Variable,3.5,-,0.18,Rain,Rain,0,2013-03-12 03:50:00
11:53 PM,51.1,50.0,96,29.84,3.0,West,4.6,-,0.19,Rain,Rain,270,2013-03-12 03:53:00